CZ-4 DEB, 28069

Orbit data source: Space-Track

CZ-4 DEB, 28069 is space debris in SSO originally from a launch on Thu, 14 Oct 1999 UTC launched from the Taiyaun Space Center, China (TSC). Debris objects in space refer to the collection of defunct objects orbiting the Earth. Examples of debris include non-operational satellites, rocket bodies, and fragments generated from explosions, collisions, or faulty payload assembly.

Loading next visibility...
Identifier
28069, 1999-057MZ
Orbit
SSO
Country
Flag of CNCN / PRC
Related business
Manufacturer
Unknown
Mission
Spacecraft
Bus & Motor
Unknown
Mass
Unknown
Launch date (UTC)
1999-10-14 (26 years ago)
Launch vehicle
Unknown
Launch site
Taiyaun Space Center, China (TSC)
Object type
Payload
Rocket body
Debris
Shape & HBR
Unknown shape, 0.1 m
Radar Cross Section
Small (<0.1 m²)

Expand to show TLE details & history
Last TLE update: 2 days ago

TLE from 2 days ago
0 CZ-4 DEB
1 28069U 99057MZ  25349.10105425  .00001510  00000-0  35901-3 0  9994
2 28069  98.5038  44.0124 0068227 303.4562  56.0123 14.54021207678928
Epoch: 2025-12-15T02:25Z
TLE epoch observation values (Epoch: 2025-12-15T02:25:31.087Z)
Latitude
-0.00002°
Longitude
-76.37158°
Altitude
688.692 km
Speed
7.526 km/s
True Right ascension
02h 56m 02s
True Declination
0° 00' 00"
Sunlit
Object was in full shadow at epoch
Visualization orbit readout
Latitude
Unknown
Longitude
Unknown
Altitude
Unknown
Speed
Unknown
Apparent Right ascension
Unknown
Apparent Declination
Unknown
Sunlit
N/A
Visualization observer readout
Local Sidereal Time
15:50:31
Azimuth
Unknown
Elevation
Unknown
Doppler factor
Unknown
Orbital elements
Apogee altitude
758.006 km
Perigee altitude
661.29 km
Semi-major axis
7,087.785 km
Eccentricity
0.00682
Inclination
98.5038°
RAAN
44.0124°
Arg. of periapsis
303.4562°
True anomaly
56.66365°
Mean anomaly
56.0123°
Eccentric anomaly
56.33766°
Mean motion
3.63729 °/min
Orbital period
98.97 mins
BSTAR
0.00035901
Loading maneuver chart data...
Computing Atmospheric mass density...

Documentation

Showing up to 5 results
|